OBJECT K

Satellite information

Favourite Embed

Satellite Type and Status

UNKNOWNIN ORBIT

Key statistics

Satellite OBJECT K at a glance.

Uptime

1103

Days in orbit

Revolutions

≈ 15.6

Per day

Orbit

SSO

Sun Synchronous Orbit

Inclination

97.6

Latest

Satellite identification and parameters

Extended collection of information and parameters for OBJECT K.

Object identification

Identified? True

Debris? False

Object name: OBJECT K

International designator: 2022-167K

Object number (NORAD): 54691

Object ID (CCSDS): 54691

Country: PEOPLES REPUBLIC OF CHINA (PRC)

Current information (Y/N): Y

RCS size: MEDIUM

Orbital parameters

Period: 92.528 minutes

Inclination: 97.6223 deg

SMA: 6776.541 km

Apoapsis: 401.226 km

Periapsis: 395.586 km

RAAN: 160.7707 deg

Eccentricy: 0.00041617

Argument of periapsis: 317.6945 deg

Mean anomaly: 42.3987 deg

Mean motion: 15.56290528 rev/day

Mean motion (dot): 0.00042463 rev/day2

B* drag term: 0.00060312287 1/REarth

Two-line elements (TLE)

Creation date: Dec. 16, 2025, 2:19 a.m.

Reference frame: TEME

Reference center: EARTH

Epoch: Dec. 15, 2025, 10:53 p.m. UTC

TLE line 0: 0 OBJECT K

TLE line 1: 1 54691U 22167K 25349.95404722 .00042463 00000-0 60312-3 0 9993

TLE line 2: 2 54691 97.6223 160.7707 0004162 317.6945 42.3987 15.56290528168306

Live tracking on map

Real-time ground track for satellite OBJECT K.

In-orbit conjunctions

There are no conjunctions computed for OBJECT K, at the moment. Check back to stay up to date, as we update our databases every day.

Go to all conjunctions

Associated space launch

First flight of the new solid fuel powered rocket developed by CAST. Payload consists of 14 satellites: * Jilin-1 HR-03D 44-50 * Jilin-1 PT-01A 01 * Tianqi-7 * HEAD-2H * CAS-5A * Golden Bauhinia 1-05 & 06 * Huoju-1

OBJECT K was lifted into orbit during the mission ‘Smart Dragon 3 | Maiden Flight’, on board a Smart Dragon 3 space rocket.

The launch took place on Dec. 9, 2022, 6:35 a.m. from Tai Rui mobile launch platform.

For more information about the launch, click the button.

Launch to space Smart Dragon 3 | Maiden Flight
Smart Dragon 3 | Maiden Flight

Agency: N/A

Status: Launch Successful

Launch date: Dec. 9, 2022, 6:35 a.m. UTC

Rocket: Smart Dragon 3

Launch pad: Tai Rui mobile launch platform

Location: Sea Launch

...

Latest news about this satellite

News about space launch
China launches 14 satellites with new solid rocket from mobile sea platform

China launched its new Jielong-3 rocket from a mobile sea platform in the Yellow Sea Friday, successfully sending 14 satellites into orbit.


Newsletter sign-up

Weekly statistics, charts and insights to help you stay on top of the space industry.